• en Belgique
  • Liste des pays
  • À 7 jours
  • Température de l'eau
  • Carte satellitaire
  • Carte météo
  • Widgets météo
  • user-avatar
    Se connecter

    Météo par heure à Rakoszyce

    Ce jour, 21 Juillet, Samedi

    Heure Température Précipitation Vent Pression Humidité
    00:00 +18°C° 0 mm 1 m/s 747 mmHg 73%
    01:00 +18°C° 0 mm 1 m/s 747 mmHg 74%
    02:00 +18°C° 0 mm 1 m/s 747 mmHg 76%
    03:00 +16°C° 0 mm 1 m/s 747 mmHg 77%
    04:00 +16°C° 0 mm 1 m/s 746 mmHg 78%
    05:00 +19°C° 0 mm 1 m/s 746 mmHg 73%
    06:00 +20°C° 0 mm 1 m/s 747 mmHg 69%
    07:00 +22°C° 0 mm 1 m/s 747 mmHg 64%
    08:00 +24°C° 0 mm 1 m/s 747 mmHg 59%
    09:00 +25°C° 0 mm 1 m/s 747 mmHg 54%
    10:00 +27°C° 0 mm 1 m/s 746 mmHg 49%
    11:00 +27°C° 0 mm 1 m/s 746 mmHg 46%
    12:00 +28°C° 0 mm 1 m/s 746 mmHg 44%
    13:00 +29°C° 0 mm 1 m/s 746 mmHg 41%
    14:00 +29°C° 0 mm 1 m/s 746 mmHg 41%
    15:00 +29°C° 0 mm 1 m/s 745 mmHg 41%
    16:00 +29°C° 0 mm 1 m/s 745 mmHg 40%
    17:00 +27°C° 0 mm 1 m/s 745 mmHg 46%
    18:00 +26°C° 0 mm 1 m/s 745 mmHg 52%
    19:00 +25°C° 0 mm 1 m/s 745 mmHg 58%
    20:00 +23°C° 0 mm 1 m/s 745 mmHg 62%
    21:00 +22°C° 0 mm 1 m/s 745 mmHg 65%
    22:00 +20°C° 0 mm 1 m/s 745 mmHg 68%
    23:00 +20°C° 0 mm 1 m/s 745 mmHg 70%

    Demain, 22 Juillet, Dimanche

    Heure Température Précipitation Vent Pression Humidité
    00:00 +19°C° 0 mm 1 m/s 746 mmHg 72%
    01:00 +19°C° 0 mm 1 m/s 746 mmHg 74%
    02:00 +18°C° 0 mm 1 m/s 745 mmHg 75%
    03:00 +18°C° 0 mm 1 m/s 745 mmHg 77%
    04:00 +16°C° 0 mm 0 m/s 745 mmHg 78%
    05:00 +19°C° 0 mm 1 m/s 745 mmHg 74%
    06:00 +21°C° 0 mm 1 m/s 746 mmHg 70%
    07:00 +22°C° 0 mm 1 m/s 746 mmHg 66%
    08:00 +24°C° 0 mm 1 m/s 746 mmHg 61%
    09:00 +25°C° 0 mm 1 m/s 746 mmHg 57%
    10:00 +26°C° 0 mm 2 m/s 746 mmHg 52%
    11:00 +27°C° 0 mm 2 m/s 745 mmHg 50%
    12:00 +28°C° 0 mm 2 m/s 745 mmHg 48%
    13:00 +28°C° 0 mm 2 m/s 745 mmHg 45%
    14:00 +28°C° 0 mm 2 m/s 745 mmHg 46%
    15:00 +28°C° 0 mm 2 m/s 745 mmHg 46%
    16:00 +28°C° 0 mm 2 m/s 744 mmHg 46%
    17:00 +27°C° 0 mm 2 m/s 745 mmHg 52%
    18:00 +26°C° 0 mm 2 m/s 745 mmHg 57%
    19:00 +25°C° 0 mm 2 m/s 745 mmHg 62%
    20:00 +23°C° 0 mm 2 m/s 745 mmHg 65%
    21:00 +22°C° 0 mm 1 m/s 745 mmHg 68%
    22:00 +20°C° 0 mm 1 m/s 745 mmHg 71%
    23:00 +20°C° 0 mm 1 m/s 745 mmHg 72%

    Après-demain, 23 Juillet, Lundi

    Heure Température Précipitation Vent Pression Humidité
    00:00 +19°C° 0 mm 1 m/s 745 mmHg 74%
    01:00 +19°C° 0 mm 1 m/s 745 mmHg 76%
    02:00 +19°C° 0 mm 1 m/s 745 mmHg 77%
    03:00 +18°C° 0 mm 1 m/s 745 mmHg 79%
    04:00 +18°C° 0 mm 1 m/s 745 mmHg 81%
    05:00 +19°C° 0 mm 1 m/s 745 mmHg 77%
    06:00 +20°C° 0 mm 2 m/s 746 mmHg 73%
    07:00 +21°C° 0 mm 2 m/s 746 mmHg 70%
    08:00 +24°C° 0 mm 2 m/s 746 mmHg 65%
    09:00 +25°C° 0 mm 2 m/s 746 mmHg 59%
    10:00 +27°C° 0 mm 3 m/s 746 mmHg 54%
    11:00 +28°C° 0 mm 3 m/s 746 mmHg 52%
    12:00 +28°C° 0 mm 3 m/s 746 mmHg 49%
    13:00 +29°C° 0 mm 3 m/s 746 mmHg 46%
    14:00 +29°C° 0 mm 3 m/s 746 mmHg 47%
    15:00 +29°C° 0 mm 4 m/s 746 mmHg 49%
    16:00 +29°C° 0 mm 4 m/s 746 mmHg 50%
    17:00 +27°C° 0,2 mm 3 m/s 746 mmHg 57%
    18:00 +26°C° 0,2 mm 2 m/s 746 mmHg 63%
    19:00 +25°C° 0,2 mm 2 m/s 746 mmHg 69%
    20:00 +24°C° 0,4 mm 2 m/s 746 mmHg 74%
    21:00 +22°C° 0,4 mm 1 m/s 747 mmHg 79%
    22:00 +21°C° 0,4 mm 1 m/s 747 mmHg 84%
    23:00 +20°C° 0,1 mm 1 m/s 747 mmHg 85%

    24 Juillet, Mardi

    Heure Température Précipitation Vent Pression Humidité
    00:00 +20°C° 0,1 mm 1 m/s 747 mmHg 86%
    01:00 +19°C° 0,1 mm 2 m/s 747 mmHg 87%
    02:00 +18°C° 0 mm 2 m/s 747 mmHg 89%
    03:00 +18°C° 0 mm 2 m/s 747 mmHg 91%
    04:00 +17°C° 0 mm 2 m/s 747 mmHg 93%
    05:00 +18°C° 0 mm 2 m/s 747 mmHg 90%
    06:00 +19°C° 0 mm 2 m/s 747 mmHg 86%
    07:00 +20°C° 0 mm 3 m/s 748 mmHg 83%
    08:00 +22°C° 0,1 mm 3 m/s 748 mmHg 76%
    09:00 +24°C° 0,1 mm 3 m/s 747 mmHg 69%
    10:00 +25°C° 0,1 mm 4 m/s 747 mmHg 62%
    11:00 +26°C° 0 mm 4 m/s 747 mmHg 60%
    12:00 +26°C° 0 mm 4 m/s 747 mmHg 57%
    13:00 +27°C° 0 mm 4 m/s 747 mmHg 54%
    14:00 +27°C° 0 mm 4 m/s 746 mmHg 53%
    15:00 +27°C° 0 mm 4 m/s 746 mmHg 52%
    16:00 +27°C° 0 mm 4 m/s 746 mmHg 51%
    17:00 +26°C° 0 mm 3 m/s 746 mmHg 56%
    18:00 +25°C° 0 mm 3 m/s 746 mmHg 61%
    19:00 +24°C° 0 mm 2 m/s 746 mmHg 65%
    20:00 +23°C° 0 mm 2 m/s 746 mmHg 69%
    21:00 +22°C° 0 mm 1 m/s 747 mmHg 72%
    22:00 +20°C° 0 mm 1 m/s 747 mmHg 75%
    23:00 +20°C° 0 mm 1 m/s 747 mmHg 77%

    25 Juillet, Mercredi

    Heure Température Précipitation Vent Pression Humidité
    00:00 +20°C° 0 mm 1 m/s 747 mmHg 79%
    01:00 +19°C° 0 mm 1 m/s 747 mmHg 80%
    02:00 +19°C° 0 mm 1 m/s 747 mmHg 82%
    03:00 +18°C° 0 mm 1 m/s 747 mmHg 84%
    04:00 +18°C° 0 mm 1 m/s 747 mmHg 86%
    05:00 +19°C° 0 mm 1 m/s 747 mmHg 81%
    06:00 +21°C° 0 mm 1 m/s 747 mmHg 76%
    07:00 +22°C° 0 mm 1 m/s 748 mmHg 71%
    08:00 +24°C° 0 mm 2 m/s 748 mmHg 66%
    09:00 +25°C° 0 mm 2 m/s 748 mmHg 60%
    10:00 +27°C° 0 mm 3 m/s 748 mmHg 55%
    11:00 +27°C° 0 mm 3 m/s 747 mmHg 52%
    12:00 +28°C° 0 mm 3 m/s 747 mmHg 49%
    13:00 +29°C° 0 mm 3 m/s 747 mmHg 46%
    14:00 +29°C° 0,1 mm 3 m/s 747 mmHg 47%
    15:00 +29°C° 0,1 mm 3 m/s 747 mmHg 48%
    16:00 +29°C° 0,1 mm 3 m/s 746 mmHg 48%
    17:00 +28°C° 0,1 mm 3 m/s 746 mmHg 55%
    18:00 +27°C° 0,1 mm 2 m/s 746 mmHg 61%
    19:00 +26°C° 0,1 mm 2 m/s 746 mmHg 67%
    20:00 +24°C° 0,2 mm 2 m/s 746 mmHg 71%
    21:00 +23°C° 0,2 mm 2 m/s 747 mmHg 75%
    22:00 +22°C° 0,2 mm 1 m/s 747 mmHg 79%
    23:00 +22°C° 0,2 mm 1 m/s 747 mmHg 81%

    26 Juillet, Jeudi

    Heure Température Précipitation Vent Pression Humidité
    00:00 +21°C° 0,2 mm 1 m/s 747 mmHg 83%
    01:00 +21°C° 0,2 mm 1 m/s 747 mmHg 85%
    02:00 +20°C° 0 mm 1 m/s 747 mmHg 86%
    03:00 +20°C° 0 mm 1 m/s 747 mmHg 87%
    04:00 +19°C° 0 mm 1 m/s 747 mmHg 88%
    05:00 +21°C° 0 mm 1 m/s 747 mmHg 83%
    06:00 +22°C° 0 mm 1 m/s 748 mmHg 78%
    07:00 +23°C° 0 mm 1 m/s 748 mmHg 73%
    08:00 +25°C° 0 mm 2 m/s 748 mmHg 66%
    09:00 +26°C° 0 mm 2 m/s 748 mmHg 60%
    10:00 +28°C° 0 mm 2 m/s 748 mmHg 53%
    11:00 +29°C° 0 mm 2 m/s 748 mmHg 50%
    12:00 +29°C° 0 mm 3 m/s 748 mmHg 48%
    13:00 +30°C° 0 mm 3 m/s 747 mmHg 45%
    14:00 +30°C° 0 mm 3 m/s 747 mmHg 45%
    15:00 +30°C° 0 mm 2 m/s 747 mmHg 45%
    16:00 +30°C° 0 mm 2 m/s 747 mmHg 44%
    17:00 +29°C° 0 mm 2 m/s 747 mmHg 50%
    18:00 +28°C° 0 mm 2 m/s 747 mmHg 55%
    19:00 +27°C° 0 mm 1 m/s 747 mmHg 60%
    20:00 +25°C° 0 mm 1 m/s 748 mmHg 62%
    21:00 +24°C° 0 mm 1 m/s 748 mmHg 64%
    22:00 +23°C° 0 mm 1 m/s 748 mmHg 67%
    23:00 +22°C° 0 mm 1 m/s 748 mmHg 68%
    Voir plus